STARLINK-32449, 61670

Orbit data source: Space-Track

STARLINK-32449, 61670 is a payload satellite owned by SpaceX/Seattle (US) in LEO that was launched on Sat, 26 Oct 2024 UTC via an FALCON 9 launch vehicle from the Air Force Eastern Test Range (AFETR). Payload-class satellites include a variety of spacecraft equipped with specific instruments for various scientific and technological missions. These include communications satellites like Starlink; space stations such as the ISS; scientific satellites like the Hubble; Earth observation satellites from companies like Planet Labs, Umbra, and HawkEye 360; GPS; miniature CubeSats for education and research; and military/defense satellites.

Loading next visibility...
Identifier
61670, 2024-193K
Orbit
LEO
Country
Flag of USUS
Related business
Manufacturer
SpaceX/Seattle
Mission
Operational Commercial Communications
Bus & Motor
STARLINK V2M, Unknown motor
Mass
730 kg wet, ~700 kg dry
Launch date (UTC)
2024-10-26 (1 year ago)
Launch vehicle
FALCON 9
Launch site
Air Force Eastern Test Range (AFETR)
Object type
Payload
Rocket body
Debris
Shape & HBR
Box + 2 Pan, 17.7 m
Radar Cross Section
33.884 m², Large (>1 m²)

Expand to show TLE details & history
Last TLE update: 1 day ago

TLE from 1 day ago
0 STARLINK-32449
1 61670U 24193K   26034.57965770  .00000444  00000-0  27115-4 0  9992
2 61670  53.1584 249.4870 0001239  94.2037 265.9105 15.30188355 71300
Epoch: 2026-02-03T13:54Z
TLE epoch observation values (Epoch: 2026-02-03T13:54:42.425Z)
Latitude
-0.00004°
Longitude
-92.94836°
Altitude
476.21 km
Speed
7.629 km/s
True Right ascension
16h 37m 56s
True Declination
0° 00' 00"
Sunlit
Object was in daylight at epoch
Visualization orbit readout
Latitude
Unknown
Longitude
Unknown
Altitude
Unknown
Speed
Unknown
Apparent Right ascension
Unknown
Apparent Declination
Unknown
Sunlit
N/A
Visualization observer readout
Local Sidereal Time
01:00:08
Azimuth
Unknown
Elevation
Unknown
Doppler factor
Unknown
Orbital elements
Apogee altitude
476.356 km
Perigee altitude
474.657 km
Semi-major axis
6,853.644 km
Eccentricity
0.00012
Inclination
53.1584°
RAAN
249.487°
Arg. of periapsis
94.2037°
True anomaly
265.89634°
Mean anomaly
265.9105°
Eccentric anomaly
265.90342°
Mean motion
3.82526 °/min
Orbital period
94.11 mins
BSTAR
0.000027115
Loading maneuver chart data...
Computing Atmospheric mass density...
Loading historical data...
Loading historical data...
Loading historical data...
Loading historical data...
Loading historical data...
Loading historical data...
Loading historical data...

Documentation

Showing up to 5 results
|